SCP
0 0 0 0 0 0 0 0 0 0 0 0 0 0 0 0 0 0 0 0 0 0 0 0 0 0 0 0 0 0 0 0 0 0 0 0 0 0 0 0 0 0 0 0
0 0 0 0 0 0 0 0 0 0 0 0 0 0 0 0 0 0 0 0 0 0 0 0 0 0 0 0 0 0 0 0 0 0 0 0 0 0 0 0 0 0 0 0
0 0 0 0 0 0 0 0 0 0 0 0 0 0 0 0 0 0 0 0 0 0 0 0 0 0 0 0 0 0 0 0 0 0 0 0 0 0 0 0 0 0 0 0
0 0 0 0 0 0 0 0 0 0 0 0 0 0 0 0 0 0 0 0 0 0 0 0 0 0 0 0 0 0 0 0 0 0 0 0 0 0 0 0 0 0 0 0
0 0 0 0 0 0 0 0 0 0 0 0 0 0 0 0 0 0 0 0 0 0 0 0 0 0 0 0 0 0 0 0 0 0 0 0 0 0 0 0 0 0 0 0
0 0 0 0 0 0 0 0 0 0 0 0 0 0 0 0 0 0 0 0 0 0 0 0 0 0 0 0 0 0 0 0 0 0 0 0 0 0 0 0 0 0 0 0
0 0 0 0 0 0 0 0 0 0 0 0 0 0 0 0 0 0 0 0 0 0 0 0 0 0 0 0 0 0 0 0 0 0 0 0 0 0 0 0 0 0 0 0
0 0 0 0 0 0 0 0 0 0 0 0 0 0 0 0 0 0 0 0 0 0 0 0 0 0 0 0 0 0 0 0 0 0 0 0 0 0 0 0 0 0 0 0
0 0 0 0 0 0 0 0 0 0 0 0 0 0 0 0 0 0 0 0 0 0 0 0 0 0 0 0 0 0 0 0 0 0 0 0 0 0 0 0 0 0 0 0
0 0 0 0 0 0 0 0 0 0 0 0 0 0 0 0 0 0 0 0 0 0 0 0 0 0 0 0 0 0 0 0 0 0 0 0 0 0 0 0 0 0 0 0
0 0 0 0 0 0 0 0 0 0 0 0 0 0 0 0 0 0 0 0 0 0 0 0 0 0 0 0 0 0 0 0 0 0 0 0 0 0 0 0 0 0 0 0
0 0 0 0 0 0 0 0 0 0 0 0 0 0 0 0 0 0 0 0 0 0 0 0 0 0 0 0 0 0 0 0 0 0 0 0 0 0 0 0 0 0 0 0
0 0 0 0 0 0 0 0 0 0 0 0 0 0 0 0 0 0 0 0 0 0 0 0 0 0 0 0 0 0 0 0 0 0 0 0 0 0 0 0 0 0 0 0
0 0 0 0 0 0 0 0 0 0 0 0 0 0 0 0 0 0 0 0 0 0 0 0 0 0 0 0 0 0 0 0 0 0 0 0 0 0 0 0 0 0 0 0
0 0 0 0 0 0 0 0 0 0 0 0 0 0 0 0 0 0 0 0 0 0 0 0 0 0 0 0 0 0 0 0 0 0 0 0 0 0 0 0 0 0 0 0
0 0 0 0 0 0 0 0 0 0 0 0 0 0 0 0 0 0 0 0 0 0 0 0 0 0 0 0 0 0 0 0 0 0 0 0 0 0 0 0 0 0 0 0
0 0 0 0 0 0 0 0 0 0 0 0 0 -0 0 0 0 0 0 0 0 0 0 0 0 0 0 0 0 0 0 0 0 0 0 0 0 0 0 0 0 0 0 0
0 0 0 0 0 0 0 0 0 0 0 0 0 0 0 0 0 0 0 0 0 0 0 0 0 0 0 0 0 0 0 0 0 0 0 0 0 0 0 0 0 0 0 0
0 0 0 0 0 0 0 0 0 0 0 0 0 0 0 0 0 0 0 0 0 0 0 0 0 0 0 0 0 0 0 0 0 0 0 0 0 0 0 0 0 0 0 0
0 0 0 0 0 0 0 0 0 0 0 0 0 0 0 0 0 0 0 0 0 0 0 0 0 0 0 0 0 0 0 0 0 0 0 0 0 0 0 0 0 0 0 0
0 0 0 0 0 0 0 0 0 0 0 0 0 0 0 0 0 0 0 0 0 0 0 0 0 0 0 0 0 0 0 0 0 0 0 0 0 0 0 0 0 0 0 0
0 0 0 0 0 0 0 0 0 0 0 0 0 0 0 0 0 0 0 0 0 0 0 0 0 0 0 0 0 0 0 0 0 0 0 0 0 0 0 0 0 0 0 0
0 0 0 0 0 0 0 0 0 0 0 0 0 0 0 0 0 0 0 0 0 0 0 0 0 0 0 0 0 0 0 0 0 0 0 0 0 0 0 0 0 0 0 0
0 0 0 0 0 0 0 0 0 0 0 0 0 0 0 0 0 0 0 0 0 0 0 0 0 0 0 0 0 0 0 0 0 0 0 0 0 0 0 0 0 0 0 0
0 0 0 0 0 0 0 0 0 0 0 0 0 0 0 0 0 0 0 0 0 0 0 0 0 0 0 0 0 0 0 0 0 0 0 0 0 0 0 0 0 0 0 0
0 0 0 0 0 0 0 0 0 0 0 0 0 0 0 0 0 0 0 0 0 0 0 0 0 0 0 0 0 0 0 0 0 0 0 0 0 0 0 0 0 0 0 0
Wind_Speed_500mb
14 8 13 17 18 15 13 12 10 5 5 7 15 10 20 23 19 31 38 38 44 48 46 46 45 48 48 48 40 41 43 40 44 49 59 62 62 63 61 56 52 47 43 39
8 12 17 13 5 9 10 10 6 3 2 8 4 20 18 17 26 45 45 41 46 41 40 45 47 50 54 53 49 45 41 40 44 49 47 53 58 61 60 58 57 53 49 45
15 12 17 16 11 13 7 11 11 9 6 0 5 15 13 16 38 52 52 54 52 49 46 48 51 52 52 55 55 53 49 47 46 45 42 44 46 52 54 59 58 59 55 52
10 11 23 11 14 13 10 9 12 15 10 8 2 10 10 6 17 16 64 67 66 55 52 51 53 55 58 55 57 60 60 59 59 56 54 52 53 48 42 45 51 53 53 51
13 17 16 11 14 18 14 12 15 7 8 7 3 4 14 5 13 20 41 70 71 53 50 53 56 54 56 56 57 59 61 61 62 62 64 61 58 50 42 37 42 44 48 50
11 2 13 19 6 11 18 14 15 10 5 4 14 13 13 11 17 10 19 42 51 51 44 50 57 55 55 54 54 56 61 66 68 67 62 58 53 45 44 41 38 39 41 40
6 0 3 10 13 6 10 15 5 3 4 11 4 3 21 11 15 11 23 33 41 50 53 52 50 50 49 48 47 47 48 54 59 67 65 57 46 38 41 39 37 32 35 37
18 11 14 9 13 16 13 17 12 14 8 7 4 14 13 10 21 37 31 22 38 42 43 41 39 39 38 36 33 31 31 31 33 41 50 50 42 41 45 36 34 34 34 34
11 5 3 5 6 16 10 9 12 13 4 5 9 13 19 11 12 8 14 28 44 44 41 38 37 36 37 33 30 28 25 23 23 27 34 37 40 44 44 41 34 35 32 34
11 8 5 2 5 4 12 17 5 5 7 7 10 12 12 8 17 11 16 43 45 42 40 39 40 38 36 32 26 24 25 26 26 27 31 35 39 43 45 33 30 31 33 33
10 8 1 3 13 15 6 7 6 10 10 10 2 13 16 23 22 25 40 51 50 47 44 43 39 37 33 29 30 31 30 29 30 31 33 35 35 34 27 24 26 25 26 28
7 10 8 15 5 5 4 17 19 11 9 6 6 21 10 16 18 31 46 47 48 46 45 45 44 41 38 37 35 34 33 33 34 32 30 30 28 21 17 16 15 15 15 14
16 2 7 9 10 4 11 6 10 11 5 16 10 27 3 4 9 20 35 37 46 48 47 46 45 44 42 41 40 40 40 38 35 33 30 28 24 22 20 18 17 15 13 11
40 9 22 27 15 16 16 17 13 16 7 15 33 38 5 9 10 10 19 27 41 52 54 53 51 50 49 47 45 45 43 40 38 35 31 26 24 23 22 20 19 17 14 12
23 15 11 4 14 13 16 23 35 33 54 20 48 28 26 18 18 32 27 26 37 51 57 60 58 59 58 56 54 51 48 44 39 34 31 30 29 27 26 24 23 21 17 14
2 3 8 7 7 8 6 28 43 55 30 42 16 37 15 34 36 20 24 31 43 52 56 60 63 65 67 65 62 57 53 48 41 38 37 35 33 32 30 29 27 22 18 13
18 13 7 8 2 13 13 47 29 33 36 47 34 68 15 8 21 50 59 54 57 59 61 65 69 74 75 72 69 64 57 51 48 44 42 40 38 35 33 30 24 18 12 9
10 11 5 7 6 9 21 14 30 37 33 44 42 18 16 25 37 45 57 70 69 69 72 74 74 74 77 73 72 67 62 56 53 52 49 47 43 37 34 28 19 13 10 8
25 11 6 10 12 16 33 13 13 18 46 30 43 36 21 31 28 75 59 63 71 67 66 74 75 77 79 80 77 72 65 61 60 57 54 50 43 37 31 23 17 13 11 9
9 17 16 6 12 23 3 9 41 12 39 27 46 43 41 32 17 42 45 54 60 62 66 72 77 79 78 81 81 77 71 69 66 62 56 50 44 38 33 26 20 17 15 12
11 5 28 14 8 18 14 8 25 20 11 12 23 49 23 19 46 32 21 29 44 52 57 66 73 74 75 84 85 81 76 72 66 62 56 50 44 39 32 27 23 19 16 17
23 21 11 8 17 32 16 5 26 12 10 10 7 4 16 41 48 52 56 57 52 50 52 59 63 67 68 80 84 82 78 73 69 64 58 51 44 39 32 27 23 20 19 17
12 14 15 25 17 3 35 2 10 9 10 9 8 8 7 7 12 18 21 26 32 39 45 52 56 60 65 80 84 82 79 77 73 66 58 50 44 37 32 28 22 20 21 20
5 3 5 7 4 5 15 10 8 7 11 10 8 6 7 9 12 14 14 21 28 36 41 46 52 57 64 77 80 77 79 78 72 66 58 51 44 40 35 26 19 28 25 21
3 7 10 7 5 18 17 8 6 2 2 5 5 6 6 10 12 15 13 16 19 28 36 42 48 54 65 74 77 76 76 74 71 64 57 51 44 36 20 28 36 30 24 19
11 6 5 3 10 11 9 14 13 13 12 8 8 11 12 13 17 18 19 20 21 26 32 41 47 53 62 71 75 77 76 73 68 63 57 51 38 30 35 44 37 32 28 23
Wind_Direction_500mb
167 142 181 189 196 189 165 170 166 245 167 144 216 253 247 234 236 236 234 230 231 231 234 230 232 229 230 226 230 230 231 233 232 233 221 222 224 230 234 236 238 240 239 248
83 209 216 183 132 148 153 163 175 334 135 161 212 255 257 247 237 236 236 234 232 227 222 220 224 224 225 226 230 233 238 242 241 240 242 236 231 231 235 238 239 242 243 246
167 209 174 173 170 183 220 165 176 176 144 56 22 294 246 249 236 242 241 241 237 226 223 220 217 216 218 221 224 230 235 239 240 245 244 242 242 236 236 239 241 244 246 247
197 192 163 173 189 139 196 198 145 142 124 202 71 268 290 257 263 228 236 235 232 224 223 223 217 214 216 221 222 226 234 237 237 241 242 243 249 247 250 252 250 248 248 249
214 163 155 167 191 167 216 141 141 122 98 99 329 62 270 301 260 242 241 237 231 227 227 223 215 210 210 216 222 228 233 238 238 238 240 242 243 253 256 255 249 250 247 251
183 157 154 176 98 163 143 96 48 55 73 262 203 163 264 216 221 254 244 236 228 214 204 208 211 212 217 225 230 234 238 237 238 241 242 239 241 241 250 254 256 253 253 253
110 15 172 142 91 19 132 97 35 8 334 225 102 144 241 249 251 234 259 231 212 206 202 202 210 220 231 239 244 242 239 239 236 235 240 240 232 225 239 253 255 250 252 254
164 187 180 171 165 171 173 157 155 183 204 245 43 229 241 219 260 255 265 248 195 189 197 207 216 222 226 228 229 229 225 224 221 222 227 228 222 222 228 237 243 243 243 244
135 208 77 79 147 161 195 175 153 107 43 75 224 281 288 261 246 245 221 191 188 193 200 206 209 211 214 213 212 211 210 209 206 209 216 216 209 217 225 241 232 235 238 241
193 120 18 86 110 25 178 152 84 11 127 261 270 274 236 302 253 211 216 206 198 198 201 205 208 209 208 207 204 202 201 203 201 197 203 208 214 220 230 222 221 226 236 245
124 97 332 121 211 158 130 173 98 129 154 177 258 260 216 214 215 207 219 214 205 203 205 207 207 207 208 205 202 199 194 191 192 188 191 198 207 219 210 203 215 220 226 234
163 117 158 196 259 234 226 191 183 171 214 239 167 251 192 213 224 219 234 224 212 212 210 208 208 208 206 205 202 196 189 182 179 179 182 184 188 189 186 194 203 208 212 218
179 159 84 21 339 303 218 186 140 103 85 206 153 257 345 228 234 232 227 223 214 211 209 207 207 209 211 210 206 200 193 188 184 183 185 186 183 179 177 178 177 171 168 168
164 158 185 194 204 143 194 192 186 175 184 203 226 242 213 195 230 222 211 214 210 210 211 211 212 214 213 210 207 203 199 194 192 189 188 186 181 178 179 181 179 175 174 174
165 186 163 133 156 145 178 186 193 206 223 189 244 242 231 211 215 226 237 215 206 208 213 217 217 215 214 210 206 204 203 200 197 193 191 191 188 183 181 177 171 167 164 165
172 185 129 177 164 125 181 207 204 215 218 241 235 266 141 209 218 213 225 216 215 219 222 224 222 221 219 213 208 205 204 202 199 197 196 191 186 179 173 173 171 170 173 184
151 137 104 240 182 100 307 224 205 220 214 224 227 243 154 198 210 222 231 232 231 236 236 232 230 225 221 217 213 209 206 203 198 197 193 188 183 179 176 178 177 181 191 217
120 118 101 137 92 185 252 176 200 208 226 223 245 252 214 224 246 247 241 242 241 243 243 241 234 230 226 218 213 210 206 202 200 196 193 189 185 182 182 183 187 197 210 227
179 136 98 154 210 291 283 190 155 172 245 215 232 243 222 230 245 255 249 248 250 252 254 251 247 238 228 217 213 208 205 202 200 197 194 189 186 184 187 190 192 202 211 224
67 183 163 149 180 214 175 220 170 111 261 202 212 236 231 186 224 256 253 258 256 253 252 253 250 241 229 218 213 209 206 203 200 197 193 190 189 189 194 195 195 201 210 218
158 109 197 195 226 276 231 186 154 166 240 210 218 237 226 196 228 246 256 257 258 254 253 250 246 242 230 216 210 207 205 204 199 195 193 192 191 192 193 192 193 199 208 217
173 168 187 174 213 254 167 94 172 201 173 179 156 220 228 239 252 261 266 269 265 251 246 243 239 232 223 213 210 208 205 201 196 194 193 194 194 194 193 194 196 198 212 215
191 194 172 188 207 176 187 349 199 177 182 174 157 222 233 224 257 268 265 257 251 242 234 232 230 223 214 208 210 208 203 199 196 195 195 194 193 191 190 195 199 209 211 213
274 146 179 110 216 120 166 148 140 136 141 150 172 195 217 235 254 247 253 245 243 239 230 227 223 218 213 207 210 209 203 199 197 195 194 193 192 193 191 192 223 221 214 215
159 129 160 281 72 80 74 121 148 174 292 298 311 286 263 269 267 251 253 249 242 241 235 228 224 220 213 208 206 202 202 199 196 194 193 191 189 189 202 234 221 216 215 214
182 167 170 163 73 89 96 59 67 67 49 10 300 279 283 282 279 272 267 253 248 249 239 229 222 218 213 208 204 200 199 200 199 196 192 189 188 217 224 218 213 213 212 215
Wind_Speed_850mb
14 8 13 17 18 15 13 12 10 5 5 7 15 10 20 23 19 31 38 38 44 48 46 46 45 48 48 48 40 41 43 40 44 49 59 62 62 63 61 56 52 47 43 39
8 12 17 13 5 9 10 10 6 3 2 8 4 20 18 17 26 45 45 41 46 41 40 45 47 50 54 53 49 45 41 40 44 49 47 53 58 61 60 58 57 53 49 45
15 12 17 16 11 13 7 11 11 9 6 0 5 15 13 16 38 52 52 54 52 49 46 48 51 52 52 55 55 53 49 47 46 45 42 44 46 52 54 59 58 59 55 52
10 11 23 11 14 13 10 9 12 15 10 8 2 10 10 6 17 16 64 67 66 55 52 51 53 55 58 55 57 60 60 59 59 56 54 52 53 48 42 45 51 53 53 51
13 17 16 11 14 18 14 12 15 7 8 7 3 4 14 5 13 20 41 70 71 53 50 53 56 54 56 56 57 59 61 61 62 62 64 61 58 50 42 37 42 44 48 50
11 2 13 19 6 11 18 14 15 10 5 4 14 13 13 11 17 10 19 42 51 51 44 50 57 55 55 54 54 56 61 66 68 67 62 58 53 45 44 41 38 39 41 40
6 0 3 10 13 6 10 15 5 3 4 11 4 3 21 11 15 11 23 33 41 50 53 52 50 50 49 48 47 47 48 54 59 67 65 57 46 38 41 39 37 32 35 37
18 11 14 9 13 16 13 17 12 14 8 7 4 14 13 10 21 37 31 22 38 42 43 41 39 39 38 36 33 31 31 31 33 41 50 50 42 41 45 36 34 34 34 34
11 5 3 5 6 16 10 9 12 13 4 5 9 13 19 11 12 8 14 28 44 44 41 38 37 36 37 33 30 28 25 23 23 27 34 37 40 44 44 41 34 35 32 34
11 8 5 2 5 4 12 17 5 5 7 7 10 12 12 8 17 11 16 43 45 42 40 39 40 38 36 32 26 24 25 26 26 27 31 35 39 43 45 33 30 31 33 33
10 8 1 3 13 15 6 7 6 10 10 10 2 13 16 23 22 25 40 51 50 47 44 43 39 37 33 29 30 31 30 29 30 31 33 35 35 34 27 24 26 25 26 28
7 10 8 15 5 5 4 17 19 11 9 6 6 21 10 16 18 31 46 47 48 46 45 45 44 41 38 37 35 34 33 33 34 32 30 30 28 21 17 16 15 15 15 14
16 2 7 9 10 4 11 6 10 11 5 16 10 27 3 4 9 20 35 37 46 48 47 46 45 44 42 41 40 40 40 38 35 33 30 28 24 22 20 18 17 15 13 11
40 9 22 27 15 16 16 17 13 16 7 15 33 38 5 9 10 10 19 27 41 52 54 53 51 50 49 47 45 45 43 40 38 35 31 26 24 23 22 20 19 17 14 12
23 15 11 4 14 13 16 23 35 33 54 20 48 28 26 18 18 32 27 26 37 51 57 60 58 59 58 56 54 51 48 44 39 34 31 30 29 27 26 24 23 21 17 14
2 3 8 7 7 8 6 28 43 55 30 42 16 37 15 34 36 20 24 31 43 52 56 60 63 65 67 65 62 57 53 48 41 38 37 35 33 32 30 29 27 22 18 13
18 13 7 8 2 13 13 47 29 33 36 47 34 68 15 8 21 50 59 54 57 59 61 65 69 74 75 72 69 64 57 51 48 44 42 40 38 35 33 30 24 18 12 9
10 11 5 7 6 9 21 14 30 37 33 44 42 18 16 25 37 45 57 70 69 69 72 74 74 74 77 73 72 67 62 56 53 52 49 47 43 37 34 28 19 13 10 8
25 11 6 10 12 16 33 13 13 18 46 30 43 36 21 31 28 75 59 63 71 67 66 74 75 77 79 80 77 72 65 61 60 57 54 50 43 37 31 23 17 13 11 9
9 17 16 6 12 23 3 9 41 12 39 27 46 43 41 32 17 42 45 54 60 62 66 72 77 79 78 81 81 77 71 69 66 62 56 50 44 38 33 26 20 17 15 12
11 5 28 14 8 18 14 8 25 20 11 12 23 49 23 19 46 32 21 29 44 52 57 66 73 74 75 84 85 81 76 72 66 62 56 50 44 39 32 27 23 19 16 17
23 21 11 8 17 32 16 5 26 12 10 10 7 4 16 41 48 52 56 57 52 50 52 59 63 67 68 80 84 82 78 73 69 64 58 51 44 39 32 27 23 20 19 17
12 14 15 25 17 3 35 2 10 9 10 9 8 8 7 7 12 18 21 26 32 39 45 52 56 60 65 80 84 82 79 77 73 66 58 50 44 37 32 28 22 20 21 20
5 3 5 7 4 5 15 10 8 7 11 10 8 6 7 9 12 14 14 21 28 36 41 46 52 57 64 77 80 77 79 78 72 66 58 51 44 40 35 26 19 28 25 21
3 7 10 7 5 18 17 8 6 2 2 5 5 6 6 10 12 15 13 16 19 28 36 42 48 54 65 74 77 76 76 74 71 64 57 51 44 36 20 28 36 30 24 19
11 6 5 3 10 11 9 14 13 13 12 8 8 11 12 13 17 18 19 20 21 26 32 41 47 53 62 71 75 77 76 73 68 63 57 51 38 30 35 44 37 32 28 23
Wind_Direction_850mb
167 142 181 189 196 189 165 170 166 245 167 144 216 253 247 234 236 236 234 230 231 231 234 230 232 229 230 226 230 230 231 233 232 233 221 222 224 230 234 236 238 240 239 248
83 209 216 183 132 148 153 163 175 334 135 161 212 255 257 247 237 236 236 234 232 227 222 220 224 224 225 226 230 233 238 242 241 240 242 236 231 231 235 238 239 242 243 246
167 209 174 173 170 183 220 165 176 176 144 56 22 294 246 249 236 242 241 241 237 226 223 220 217 216 218 221 224 230 235 239 240 245 244 242 242 236 236 239 241 244 246 247
197 192 163 173 189 139 196 198 145 142 124 202 71 268 290 257 263 228 236 235 232 224 223 223 217 214 216 221 222 226 234 237 237 241 242 243 249 247 250 252 250 248 248 249
214 163 155 167 191 167 216 141 141 122 98 99 329 62 270 301 260 242 241 237 231 227 227 223 215 210 210 216 222 228 233 238 238 238 240 242 243 253 256 255 249 250 247 251
183 157 154 176 98 163 143 96 48 55 73 262 203 163 264 216 221 254 244 236 228 214 204 208 211 212 217 225 230 234 238 237 238 241 242 239 241 241 250 254 256 253 253 253
110 15 172 142 91 19 132 97 35 8 334 225 102 144 241 249 251 234 259 231 212 206 202 202 210 220 231 239 244 242 239 239 236 235 240 240 232 225 239 253 255 250 252 254
164 187 180 171 165 171 173 157 155 183 204 245 43 229 241 219 260 255 265 248 195 189 197 207 216 222 226 228 229 229 225 224 221 222 227 228 222 222 228 237 243 243 243 244
135 208 77 79 147 161 195 175 153 107 43 75 224 281 288 261 246 245 221 191 188 193 200 206 209 211 214 213 212 211 210 209 206 209 216 216 209 217 225 241 232 235 238 241
193 120 18 86 110 25 178 152 84 11 127 261 270 274 236 302 253 211 216 206 198 198 201 205 208 209 208 207 204 202 201 203 201 197 203 208 214 220 230 222 221 226 236 245
124 97 332 121 211 158 130 173 98 129 154 177 258 260 216 214 215 207 219 214 205 203 205 207 207 207 208 205 202 199 194 191 192 188 191 198 207 219 210 203 215 220 226 234
163 117 158 196 259 234 226 191 183 171 214 239 167 251 192 213 224 219 234 224 212 212 210 208 208 208 206 205 202 196 189 182 179 179 182 184 188 189 186 194 203 208 212 218
179 159 84 21 339 303 218 186 140 103 85 206 153 257 345 228 234 232 227 223 214 211 209 207 207 209 211 210 206 200 193 188 184 183 185 186 183 179 177 178 177 171 168 168
164 158 185 194 204 143 194 192 186 175 184 203 226 242 213 195 230 222 211 214 210 210 211 211 212 214 213 210 207 203 199 194 192 189 188 186 181 178 179 181 179 175 174 174
165 186 163 133 156 145 178 186 193 206 223 189 244 242 231 211 215 226 237 215 206 208 213 217 217 215 214 210 206 204 203 200 197 193 191 191 188 183 181 177 171 167 164 165
172 185 129 177 164 125 181 207 204 215 218 241 235 266 141 209 218 213 225 216 215 219 222 224 222 221 219 213 208 205 204 202 199 197 196 191 186 179 173 173 171 170 173 184
151 137 104 240 182 100 307 224 205 220 214 224 227 243 154 198 210 222 231 232 231 236 236 232 230 225 221 217 213 209 206 203 198 197 193 188 183 179 176 178 177 181 191 217
120 118 101 137 92 185 252 176 200 208 226 223 245 252 214 224 246 247 241 242 241 243 243 241 234 230 226 218 213 210 206 202 200 196 193 189 185 182 182 183 187 197 210 227
179 136 98 154 210 291 283 190 155 172 245 215 232 243 222 230 245 255 249 248 250 252 254 251 247 238 228 217 213 208 205 202 200 197 194 189 186 184 187 190 192 202 211 224
67 183 163 149 180 214 175 220 170 111 261 202 212 236 231 186 224 256 253 258 256 253 252 253 250 241 229 218 213 209 206 203 200 197 193 190 189 189 194 195 195 201 210 218
158 109 197 195 226 276 231 186 154 166 240 210 218 237 226 196 228 246 256 257 258 254 253 250 246 242 230 216 210 207 205 204 199 195 193 192 191 192 193 192 193 199 208 217
173 168 187 174 213 254 167 94 172 201 173 179 156 220 228 239 252 261 266 269 265 251 246 243 239 232 223 213 210 208 205 201 196 194 193 194 194 194 193 194 196 198 212 215
191 194 172 188 207 176 187 349 199 177 182 174 157 222 233 224 257 268 265 257 251 242 234 232 230 223 214 208 210 208 203 199 196 195 195 194 193 191 190 195 199 209 211 213
274 146 179 110 216 120 166 148 140 136 141 150 172 195 217 235 254 247 253 245 243 239 230 227 223 218 213 207 210 209 203 199 197 195 194 193 192 193 191 192 223 221 214 215
159 129 160 281 72 80 74 121 148 174 292 298 311 286 263 269 267 251 253 249 242 241 235 228 224 220 213 208 206 202 202 199 196 194 193 191 189 189 202 234 221 216 215 214
182 167 170 163 73 89 96 59 67 67 49 10 300 279 283 282 279 272 267 253 248 249 239 229 222 218 213 208 204 200 199 200 199 196 192 189 188 217 224 218 213 213 212 215